G1 CYXU-ZZZZ

Flight info

Callsign G1
Flight time N/A
Altitude 2000
Route VFR SOUTHBOUND
Aircraft F16

Departure

Time 2026-04-24 23:46
Airport London International Airport (CYXU)

Arrival

Time N/A
Airport ZZZZ
Time Latitude Longitude Altitude Speed Heading
2026-04-24 23:35 43.03691 -81.08663 1370 ft 208 kts 165°
2026-04-24 23:35 43.02209 -81.08473 1345 ft 219 kts 170°
2026-04-24 23:35 43.00655 -81.08304 1337 ft 229 kts 172°
2026-04-24 23:36 42.99029 -81.08123 1343 ft 238 kts 171°
2026-04-24 23:36 42.97201 -81.07907 1361 ft 329 kts 172°
2026-04-24 23:36 42.94846 -81.07587 1337 ft 342 kts 171°
2026-04-24 23:36 42.92344 -81.07240 1353 ft 436 kts 172°
2026-04-24 23:37 42.88479 -81.06629 1368 ft 666 kts 172°
2026-04-24 23:37 42.83435 -81.05794 1365 ft 777 kts 172°
2026-04-24 23:37 42.72127 -81.03892 1365 ft 846 kts 172°
2026-04-24 23:38 42.66308 -81.02912 1358 ft 860 kts 172°
2026-04-24 23:38 42.60340 -81.01909 1366 ft 868 kts 172°
2026-04-24 23:38 42.54336 -81.00902 1361 ft 873 kts 172°
2026-04-24 23:38 42.48291 -80.99892 1353 ft 875 kts 172°
2026-04-24 23:39 42.42247 -80.98882 1362 ft 876 kts 172°
2026-04-24 23:39 42.36195 -80.97872 1353 ft 878 kts 172°
2026-04-24 23:39 42.30133 -80.96861 1357 ft 878 kts 172°
2026-04-24 23:39 42.24069 -80.95850 1360 ft 879 kts 172°
2026-04-24 23:40 42.17996 -80.94838 1364 ft 879 kts 172°
2026-04-24 23:40 42.11914 -80.93822 1361 ft 880 kts 172°
2026-04-24 23:40 42.05839 -80.92809 1356 ft 881 kts 172°
2026-04-24 23:40 41.99750 -80.91787 1351 ft 882 kts 172°
2026-04-24 23:41 41.93737 -80.90785 1349 ft 884 kts 173°
2026-04-24 23:41 41.87623 -80.89775 1349 ft 886 kts 173°
2026-04-24 23:41 41.81497 -80.88765 1351 ft 888 kts 173°
2026-04-24 23:41 41.76702 -80.88059 10224 ft 347 kts 179°
2026-04-24 23:42 41.74889 -80.87969 27034 ft 168 kts 188°
2026-04-24 23:42 41.74672 -80.87885 40795 ft 169 kts 351°
2026-04-24 23:42 41.76844 -80.87935 45263 ft 351 kts 357°
2026-04-24 23:42 41.79454 -80.87852 45127 ft 408 kts 357°
2026-04-24 23:43 41.82550 -80.87797 44636 ft 479 kts 357°
2026-04-24 23:43 41.86121 -80.87779 44547 ft 545 kts 357°
2026-04-24 23:43 41.90118 -80.87791 44604 ft 605 kts 357°
2026-04-24 23:43 41.94532 -80.87830 44627 ft 660 kts 357°
2026-04-24 23:44 41.99300 -80.87894 44635 ft 711 kts 357°
2026-04-24 23:44 42.04332 -80.87980 44725 ft 755 kts 357°
2026-04-24 23:44 42.09735 -80.88086 44782 ft 800 kts 357°
2026-04-24 23:44 42.15479 -80.88216 44795 ft 853 kts 357°
2026-04-24 23:45 42.21618 -80.88372 44800 ft 913 kts 357°
2026-04-24 23:45 42.28156 -80.88554 44822 ft 966 kts 357°
2026-04-24 23:45 42.35063 -80.88761 44816 ft 1012 kts 357°
2026-04-24 23:45 42.42245 -80.88986 44805 ft 1052 kts 357°
2026-04-24 23:46 42.49682 -80.89229 44811 ft 1084 kts 357°
2026-04-24 23:46 42.57309 -80.89484 44807 ft 1107 kts 357°
2026-04-24 23:46 42.65060 -80.89749 44817 ft 1122 kts 357°
2026-04-24 23:46 42.72903 -80.90019 44812 ft 1132 kts 357°
2026-04-24 23:47 42.88644 -80.90568 44832 ft 1145 kts 357°
2026-04-24 23:47 42.96594 -80.90803 43988 ft 1082 kts 358°
2026-04-24 23:47 43.03405 -80.90944 24898 ft 1018 kts 357°
2026-04-24 23:48 43.10516 -80.91317 7572 ft 997 kts 354°
2026-04-24 23:48 43.15194 -80.91767 4052 ft 547 kts 354°
2026-04-24 23:48 43.18903 -80.92198 3391 ft 521 kts 347°
2026-04-24 23:48 43.21959 -80.94227 2788 ft 470 kts 311°
2026-04-24 23:49 43.24058 -80.97539 2640 ft 451 kts 309°
2026-04-24 23:49 43.26084 -81.00726 2766 ft 437 kts 309°
2026-04-24 23:49 43.28028 -81.03767 2766 ft 417 kts 310°
2026-04-24 23:49 43.29182 -81.07141 2595 ft 382 kts 255°
2026-04-24 23:50 43.27522 -81.09408 2832 ft 339 kts 207°
2026-04-24 23:50 43.25288 -81.10014 2958 ft 325 kts 189°
2026-04-24 23:50 43.23055 -81.10328 2770 ft 314 kts 186°
2026-04-24 23:50 43.20950 -81.10537 2630 ft 291 kts 185°
2026-04-24 23:51 43.19005 -81.10743 2533 ft 269 kts 188°
2026-04-24 23:51 43.17231 -81.11128 2462 ft 247 kts 189°
2026-04-24 23:51 43.15601 -81.11512 2429 ft 229 kts 189°
2026-04-24 23:51 43.14088 -81.11884 2366 ft 213 kts 191°
2026-04-24 23:52 43.12690 -81.12319 2263 ft 200 kts 191°
2026-04-24 23:52 43.11380 -81.12721 2133 ft 192 kts 190°
2026-04-24 23:52 43.10062 -81.13120 2028 ft 212 kts 190°
2026-04-24 23:52 43.08525 -81.13537 2099 ft 233 kts 189°
2026-04-24 23:53 43.06931 -81.14006 2147 ft 238 kts 192°
2026-04-24 23:53 43.05841 -81.15566 1835 ft 248 kts 249°
2026-04-24 23:53 43.05469 -81.17907 1783 ft 257 kts 259°
2026-04-24 23:53 43.05195 -81.20340 1918 ft 260 kts 260°
2026-04-24 23:54 43.04918 -81.22790 2084 ft 261 kts 259°
2026-04-24 23:54 43.04628 -81.25189 2147 ft 254 kts 253°
2026-04-24 23:54 43.03522 -81.26598 2078 ft 220 kts 166°
2026-04-24 23:54 43.02872 -81.24996 1930 ft 208 kts 96°
2026-04-24 23:55 43.02914 -81.23129 1793 ft 188 kts 83°
2026-04-24 23:55 43.03159 -81.21377 1532 ft 208 kts 80°
2026-04-24 23:55 43.03424 -81.19507 1272 ft 175 kts 82°
2026-04-24 23:55 43.03641 -81.17971 1088 ft 161 kts 83°
2026-04-24 23:56 43.03799 -81.16448 1023 ft 168 kts 83°
2026-04-24 23:56 43.04006 -81.14929 1088 ft 170 kts 82°
2026-04-24 23:56 43.04243 -81.13282 1211 ft 181 kts 79°
2026-04-24 23:56 43.04719 -81.11646 1162 ft 190 kts 78°
2026-04-24 23:57 43.04323 -81.10132 1148 ft 183 kts 165°
2026-04-24 23:57 43.03082 -81.10302 1032 ft 176 kts 167°
2026-04-24 23:57 43.02184 -81.09342 1079 ft 172 kts 113°
2026-04-24 23:57 43.02503 -81.07853 1044 ft 200 kts 21°
2026-04-24 23:58 43.03394 -81.08800 1076 ft 205 kts 243°
2026-04-24 23:58 43.02477 -81.10236 1115 ft 212 kts 222°
2026-04-24 23:58 43.02130 -81.12214 995 ft 229 kts 270°
2026-04-24 23:58 43.01863 -81.14352 1002 ft 231 kts 236°
2026-04-24 23:59 43.01047 -81.16225 1114 ft 251 kts 249°
2026-04-24 23:59 43.00429 -81.18705 1324 ft 278 kts 248°
2026-04-24 23:59 42.99728 -81.21164 1512 ft 278 kts 257°
2026-04-24 23:59 43.00389 -81.23297 1341 ft 250 kts 346°
2026-04-25 00:00 43.02002 -81.23296 1446 ft 228 kts 27°
2026-04-25 00:00 43.02996 -81.21863 1426 ft 212 kts 79°
2026-04-25 00:00 43.03324 -81.19831 1241 ft 221 kts 79°
2026-04-25 00:00 43.03640 -81.17799 1048 ft 223 kts 81°
2026-04-25 00:01 43.03920 -81.15702 908 ft 205 kts 81°
2026-04-25 00:01 43.04142 -81.14075 1027 ft 161 kts 81°